Tracking 26321 objects as of 27-Nov-2022
HD Live streaming from Space Station
objects crossing your sky now

COSMOS 1408 DEB

Track COSMOS 1408 DEB now!
10-day predictions


NORAD ID: 49907
Int'l Code: 1982-092NS
Perigee: 443.2 km
Apogee: 675.2 km
Inclination: 82.5 °
Period: 95.7 minutes
Semi major axis: 6930 km
RCS: Unknown
Launch date: September 16, 1982
Source: Commonwealth of Independent States (former USSR) (CIS)
Launch site: PLESETSK MISSILE AND SPACE COMPLEX (PKMTR)

Note: This is SATELLITE DEBRIS
aabbcc
Your satellite tracking list
Your tracking list is empty




NASA's NSSDC Master Catalog

Two Line Element Set (TLE):
1 49907U 82092NS  22330.45509578  .00051832  00000-0  26646-2 0  9998
2 49907  82.5472 126.5912 0167435 221.7780 137.0567 15.04820261 55039
Source of the keplerian elements: AFSPC